sat.trackr.live / text

‹ back to catalog

ONEWEB-0043

NORAD 45149 · 2020-008U

PAYLOAD ACTIVE UNKNOWN

§ Identity

Operator
Country
UK
Launch date
2020-02-06
Launch site
TYMSC
Launch vehicle
Mass (kg)
RCS (m²)

Purposes: comms

External: N2YO · Heavens-Above · Gunter

§ Orbital elements

Epoch: 2026-05-25T03:27:16.060032Z

Period
109.89 min
Inclination
87.8857°
Eccentricity
0.0002389
Mean motion
13.10375726 rev/d
Perigee alt
1,219.9 km
Apogee alt
1,223.5 km
Semi-major
7,599.8 km
B*
5.3975e-4
RAAN
40.8529°
Arg perigee
76.1247°
Mean anomaly
284.0146°
Rev number
30,516

§ Raw data

ONEWEB-00431 45149U 20008U   26145.14393588  .00000201  00000+0  53975-3 0  99962 45149  87.8857  40.8529 0002389  76.1247 284.0146 13.10375726305160

JSON: /api/v1/satellites/45149 · /tle

For live sub-satellite position, see the globe view (requires WebGL).

§ Visibility from observer

Set your observer location to see the next 7 days of passes ≥ 10°. The values pass through the URL so the page stays shareable.

No JS? Fill the form by hand. The geolocation button needs JavaScript.